Temp
18 18 18 19 19 19 19 20 20 20 20 20 21 21 21 22 23 23 24 24 25 26 26 26 26 26 27 27 26 26 27 27 27 25 28 23 24 22 22 22 22 22 21 22 22
17 18 18 19 18 18 19 19 20 20 20 20 20 21 21 22 24 24 24 25 25 25 25 26 26 26 27 26 25 27 27 27 27 27 27 24 25 23 23 23 22 22 22 22 22
18 18 18 18 18 18 19 19 20 20 20 20 21 21 21 22 24 24 25 25 25 25 25 26 26 27 26 25 25 24 28 26 27 26 25 24 24 24 25 24 24 23 22 22 22
17 18 18 18 18 18 19 20 20 20 20 20 21 21 22 22 24 24 25 25 25 25 26 26 26 26 27 28 24 27 26 25 27 24 24 25 25 24 25 26 24 23 22 21 23
18 18 18 18 18 19 19 20 19 20 20 20 21 21 22 22 24 25 25 25 25 25 26 26 26 25 28 26 24 26 26 25 25 23 24 24 25 25 24 24 24 23 22 21 21
18 18 18 18 19 19 19 20 19 20 20 21 21 21 22 23 25 25 25 25 26 26 26 26 26 26 26 25 26 25 25 26 25 24 24 25 24 24 25 23 23 23 21 21 21
18 18 18 19 19 19 20 20 20 21 21 21 21 22 23 25 25 26 26 26 26 26 26 26 26 26 25 26 25 25 28 27 25 24 25 25 25 25 25 23 23 22 21 20 20
18 18 19 19 19 20 20 20 20 21 21 21 22 22 24 26 26 27 26 26 26 26 25 25 26 26 25 25 25 27 26 28 26 26 23 26 28 28 23 23 23 22 20 19 20
18 19 19 19 20 20 20 20 21 21 21 22 22 22 25 26 26 27 27 26 27 26 26 25 26 26 26 28 29 27 28 27 27 25 26 27 28 25 22 23 23 21 20 20 18
19 19 19 19 20 20 20 21 21 22 22 22 22 22 26 26 26 27 27 27 27 26 26 26 26 28 27 28 28 27 27 27 27 26 26 26 25 24 20 22 21 20 19 19 19
19 19 19 20 20 20 20 21 21 22 22 24 23 24 26 26 27 27 28 27 28 27 27 24 29 28 26 25 26 26 27 27 26 25 25 22 23 22 20 20 20 20 19 19 19
19 19 19 19 20 20 21 21 21 21 22 24 24 24 26 26 27 28 28 28 27 27 26 28 27 26 25 25 26 27 27 27 26 25 26 23 23 21 20 20 19 19 19 20 19
19 20 19 20 20 21 21 22 21 22 21 24 25 25 26 26 27 28 28 28 27 27 26 27 27 24 26 26 27 26 26 26 26 24 24 24 25 23 22 20 19 18 19 19 20
19 20 20 20 21 21 21 22 22 22 24 25 25 26 27 27 27 27 28 28 26 27 25 26 24 25 27 26 26 26 25 25 25 25 25 22 25 23 22 23 21 20 20 21 23
19 20 20 20 21 21 21 22 23 22 23 25 26 26 26 27 27 27 27 28 27 26 26 25 26 26 27 26 25 26 23 23 23 23 24 23 24 24 22 24 24 23 21 22 24
20 20 21 21 21 21 22 23 22 24 22 24 25 26 27 26 27 27 27 27 26 25 26 25 24 26 26 23 24 23 24 22 22 23 24 22 22 24 24 24 24 23 23 23 23
20 21 21 21 21 22 22 22 23 23 23 24 24 25 26 26 27 27 26 26 26 26 26 26 26 26 25 27 26 26 25 25 25 24 24 21 23 24 23 23 23 24 24 23 21
21 21 21 22 22 22 22 23 21 22 23 24 24 24 26 26 26 25 25 25 24 24 24 26 25 26 25 26 26 23 24 24 22 23 23 22 23 25 23 22 21 21 22 21 22
21 21 22 22 22 22 23 21 22 21 22 23 24 25 25 25 26 25 25 25 25 24 26 25 25 25 24 25 25 23 24 22 21 18 22 22 23 23 22 23 22 22 22 21 21
21 21 21 22 22 23 22 19 20 20 22 22 23 23 24 25 25 25 25 24 25 23 23 24 24 24 24 24 23 24 21 23 22 22 21 23 22 24 24 24 23 22 22 20 20
21 21 21 22 23 23 22 21 20 21 21 23 23 23 23 24 24 23 25 24 23 23 22 23 24 24 24 24 24 24 24 20 21 21 22 21 23 24 24 23 23 23 20 21 20
21 20 20 21 20 14 21 19 20 22 22 22 22 23 24 23 23 23 24 22 21 22 24 21 22 24 24 22 22 23 22 22 23 21 19 20 22 22 21 21 19 19 21 20 20
19 19 20 20 20 19 18 20 20 22 22 22 23 23 22 22 23 23 22 21 20 22 22 21 21 23 23 24 23 23 21 19 18 18 20 21 23 21 21 20 19 20 21 19 20
18 19 19 20 18 19 19 20 21 21 21 21 22 22 23 22 21 22 22 21 20 19 20 20 19 23 24 24 22 22 21 20 20 21 21 21 22 23 23 21 21 19 18 18 20
16 14 14 19 18 18 19 20 20 20 20 20 22 23 23 23 23 22 22 22 21 20 19 21 22 21 21 21 22 22 22 21 21 21 20 22 20 22 21 20 19 18 19 19 19
15 14 14 14 15 18 16 19 20 20 20 22 22 22 22 23 23 23 22 22 23 20 19 18 20 21 21 21 21 22 21 21 21 21 19 20 21 20 19 19 19 19 19 19 19
14 14 14 12 15 18 18 19 20 18 21 20 21 21 21 22 21 20 19 18 19 21 19 20 19 21 21 19 20 21 21 21 21 21 20 21 21 19 21 20 19 19 19 18 18
Height
1546 1547 1547 1547 1547 1547 1547 1547 1548 1548 1547 1547 1547 1545 1544 1542 1540 1538 1535 1536 1538 1541 1543 1545 1547 1549 1551 1551 1551 1551 1553 1556 1553 1557 1549 1555 1558 1561 1562 1564 1568 1568 1567 1565 1566
1544 1545 1545 1546 1545 1545 1546 1546 1546 1547 1546 1546 1546 1544 1542 1539 1536 1535 1534 1533 1536 1539 1542 1545 1546 1549 1550 1549 1550 1550 1553 1550 1547 1547 1547 1553 1556 1559 1561 1564 1566 1566 1565 1565 1566
1542 1543 1544 1544 1544 1544 1545 1545 1545 1546 1545 1545 1545 1543 1541 1538 1536 1535 1534 1534 1536 1539 1542 1544 1546 1547 1548 1548 1549 1550 1547 1547 1545 1547 1548 1551 1555 1558 1558 1561 1560 1561 1563 1563 1565
1540 1541 1542 1542 1543 1543 1543 1544 1544 1544 1544 1544 1544 1542 1539 1537 1539 1535 1536 1537 1539 1540 1542 1543 1545 1546 1546 1546 1548 1549 1545 1546 1544 1545 1548 1550 1553 1555 1555 1554 1556 1559 1562 1564 1564
1539 1539 1540 1541 1541 1542 1542 1543 1543 1544 1543 1543 1543 1541 1538 1537 1537 1535 1536 1537 1539 1541 1542 1543 1544 1544 1543 1546 1548 1548 1546 1544 1544 1545 1549 1552 1550 1554 1552 1554 1555 1558 1561 1563 1566
1536 1537 1538 1539 1540 1540 1541 1542 1542 1543 1543 1543 1542 1540 1539 1538 1536 1536 1537 1538 1540 1541 1542 1543 1543 1543 1544 1545 1546 1545 1546 1544 1544 1545 1547 1551 1555 1557 1551 1554 1555 1556 1559 1563 1566
1534 1536 1537 1538 1538 1539 1540 1541 1541 1542 1542 1542 1541 1538 1537 1538 1537 1537 1538 1539 1540 1541 1542 1542 1542 1543 1543 1543 1543 1543 1542 1544 1547 1547 1550 1552 1557 1552 1551 1552 1554 1554 1559 1564 1566
1533 1534 1535 1536 1537 1538 1539 1539 1540 1541 1541 1541 1540 1538 1536 1537 1537 1537 1538 1539 1539 1540 1540 1540 1541 1542 1541 1542 1543 1543 1544 1546 1549 1549 1552 1552 1549 1545 1552 1551 1551 1555 1560 1563 1565
1532 1532 1534 1534 1535 1536 1538 1538 1539 1541 1540 1540 1540 1539 1537 1537 1537 1537 1537 1538 1538 1538 1539 1540 1541 1541 1540 1539 1543 1546 1552 1552 1550 1551 1551 1553 1548 1549 1549 1551 1554 1557 1560 1563 1565
1531 1532 1532 1533 1534 1536 1537 1538 1539 1540 1540 1539 1539 1541 1538 1538 1537 1537 1537 1538 1539 1539 1540 1541 1541 1540 1541 1542 1556 1553 1552 1552 1552 1553 1551 1552 1552 1551 1551 1552 1555 1558 1560 1562 1566
1531 1531 1532 1532 1534 1535 1536 1538 1542 1541 1538 1538 1539 1538 1537 1537 1537 1538 1538 1538 1538 1539 1540 1540 1540 1547 1547 1548 1548 1550 1551 1554 1552 1553 1555 1560 1557 1554 1554 1554 1556 1559 1562 1563 1566
1531 1530 1531 1532 1534 1535 1536 1537 1538 1540 1537 1535 1536 1536 1536 1536 1537 1537 1538 1539 1539 1541 1542 1542 1546 1546 1547 1548 1548 1549 1553 1555 1553 1553 1552 1559 1558 1556 1555 1554 1556 1558 1560 1562 1565
1530 1530 1531 1533 1534 1535 1536 1537 1537 1537 1537 1535 1535 1534 1535 1537 1537 1537 1538 1538 1538 1540 1543 1546 1547 1548 1547 1549 1549 1554 1554 1555 1556 1556 1557 1557 1556 1557 1556 1555 1555 1557 1558 1560 1562
1531 1531 1532 1533 1536 1535 1536 1536 1536 1535 1538 1537 1534 1534 1535 1535 1536 1536 1537 1539 1540 1543 1545 1548 1548 1547 1547 1551 1551 1556 1553 1554 1556 1558 1563 1564 1566 1559 1559 1555 1556 1557 1558 1559 1561
1532 1532 1532 1533 1534 1536 1537 1535 1534 1536 1561 1537 1534 1534 1534 1537 1537 1537 1537 1538 1541 1543 1546 1553 1548 1548 1549 1552 1552 1555 1555 1557 1559 1561 1562 1565 1564 1560 1561 1557 1555 1557 1558 1559 1558
1533 1532 1532 1534 1535 1536 1534 1535 1536 1543 1561 1538 1534 1534 1535 1535 1536 1537 1538 1539 1542 1544 1545 1547 1548 1548 1550 1554 1552 1555 1556 1560 1562 1562 1569 1574 1572 1561 1559 1557 1557 1558 1558 1557 1556
1532 1532 1533 1534 1536 1535 1534 1536 1542 1551 1542 1542 1538 1535 1534 1536 1536 1536 1539 1542 1545 1553 1554 1549 1550 1550 1551 1551 1552 1552 1556 1567 1571 1572 1577 1573 1570 1561 1557 1558 1557 1556 1556 1555 1558
1532 1532 1533 1534 1535 1535 1536 1538 1554 1548 1544 1539 1537 1536 1537 1536 1537 1538 1542 1546 1545 1547 1555 1557 1567 1551 1551 1551 1555 1561 1560 1571 1592 1586 1576 1570 1572 1560 1557 1557 1557 1555 1554 1554 1555
1532 1532 1533 1534 1534 1535 1537 1547 1548 1547 1544 1542 1537 1538 1539 1538 1538 1540 1543 1544 1543 1543 1551 1557 1560 1552 1553 1552 1555 1561 1564 1569 1580 1591 1582 1573 1565 1556 1556 1555 1554 1552 1551 1553 1555
1531 1531 1532 1533 1534 1535 1537 1549 1546 1545 1543 1542 1544 1539 1543 1539 1541 1542 1545 1542 1542 1544 1545 1549 1562 1555 1555 1554 1558 1557 1565 1570 1572 1587 1590 1574 1574 1561 1553 1549 1549 1548 1550 1553 1553
1530 1531 1531 1532 1534 1535 1541 1545 1545 1543 1543 1543 1543 1542 1540 1541 1542 1547 1545 1544 1543 1544 1545 1549 1552 1559 1555 1558 1559 1562 1564 1574 1574 1580 1583 1584 1568 1549 1548 1548 1548 1547 1549 1550 1551
1529 1531 1531 1532 1536 1541 1542 1543 1543 1543 1542 1542 1540 1540 1539 1541 1543 1546 1546 1546 1544 1543 1544 1549 1554 1561 1561 1560 1561 1559 1565 1567 1571 1581 1584 1584 1569 1551 1551 1549 1548 1545 1546 1548 1549
1530 1530 1532 1533 1538 1541 1543 1543 1543 1543 1542 1541 1540 1540 1539 1541 1546 1545 1545 1545 1544 1544 1545 1546 1560 1568 1566 1562 1561 1561 1567 1572 1574 1577 1578 1579 1564 1551 1549 1547 1545 1544 1545 1547 1548
1532 1532 1533 1534 1536 1537 1541 1543 1543 1543 1542 1542 1541 1540 1540 1543 1542 1545 1545 1545 1545 1544 1544 1545 1559 1557 1562 1560 1560 1566 1566 1569 1569 1574 1569 1567 1559 1549 1547 1546 1547 1548 1548 1549 1549
1533 1536 1537 1535 1537 1537 1539 1543 1544 1544 1542 1541 1540 1539 1540 1545 1544 1545 1545 1545 1546 1546 1546 1546 1557 1560 1562 1560 1561 1562 1563 1566 1566 1563 1569 1559 1563 1551 1551 1550 1550 1549 1548 1548 1548
1536 1537 1537 1538 1538 1539 1541 1543 1544 1543 1543 1540 1540 1539 1540 1541 1541 1542 1542 1545 1544 1546 1548 1551 1562 1560 1564 1563 1563 1563 1562 1562 1563 1562 1564 1561 1557 1554 1552 1551 1550 1549 1549 1548 1547
1537 1538 1539 1540 1540 1539 1540 1542 1543 1543 1540 1540 1540 1540 1541 1541 1541 1543 1544 1544 1545 1546 1550 1552 1558 1562 1566 1567 1566 1570 1561 1560 1559 1558 1559 1560 1553 1554 1551 1551 1551 1550 1549 1549 1548
Wind_Speed
9 9 8 8 9 8 8 7 7 7 6 6 6 7 11 13 14 15 17 15 12 18 19 14 14 13 10 9 4 4 1 2 3 7 2 12 15 5 4 8 8 10 5 11 19
10 9 9 10 8 7 7 6 6 5 4 5 5 9 13 17 8 5 4 5 11 12 13 7 11 9 5 3 2 3 2 4 3 6 4 14 18 13 7 8 13 10 10 21 20
10 9 10 9 8 6 6 4 4 4 3 4 7 11 15 16 2 4 7 7 10 9 8 8 9 10 5 4 3 2 3 2 6 9 8 19 15 13 10 8 19 19 17 25 23
10 9 8 8 7 5 5 4 3 3 3 4 9 13 16 6 2 1 6 8 8 9 10 9 7 5 3 2 3 3 7 8 4 6 10 21 15 14 20 6 13 16 19 24 23
9 8 7 6 6 5 4 3 3 3 3 5 10 14 19 4 3 4 9 8 7 7 8 7 5 4 1 1 2 4 2 3 4 8 6 15 21 13 24 16 6 16 21 25 20
8 7 7 6 5 5 3 3 3 3 3 6 11 14 13 1 8 7 7 7 7 7 5 5 1 2 3 2 4 2 2 1 2 8 9 18 10 9 18 16 10 16 24 23 19
7 7 7 6 5 4 3 3 3 4 3 7 11 15 6 3 6 5 5 5 4 3 3 1 1 0 2 2 3 2 1 5 9 4 4 13 5 17 15 14 16 19 21 18 18
7 7 7 6 5 4 4 4 4 4 4 7 11 12 3 5 6 3 2 2 4 6 4 1 1 2 2 1 3 3 3 1 8 3 4 8 13 17 8 15 21 19 17 17 18
5 6 6 5 5 4 4 4 4 4 5 8 9 5 2 4 7 6 4 3 4 4 6 3 4 1 2 3 2 5 5 2 3 4 6 8 7 5 5 15 15 16 16 17 16
3 4 5 5 5 4 4 3 3 5 6 6 4 1 3 6 9 7 7 5 3 8 7 1 2 2 3 1 1 3 4 5 5 6 6 3 3 11 4 9 10 12 13 16 15
1 3 4 4 4 4 3 2 3 2 4 3 5 5 3 9 4 4 4 2 4 6 4 5 5 5 3 1 3 5 5 5 3 5 4 3 4 9 5 1 3 7 10 14 14
2 2 3 4 4 4 5 3 5 3 3 4 6 8 5 2 2 4 3 3 5 3 1 2 4 2 5 6 5 5 3 2 1 5 2 2 5 8 7 2 3 6 9 13 13
6 2 3 3 4 6 7 4 1 5 1 2 3 4 2 2 1 3 3 2 4 4 4 1 2 4 5 6 6 3 2 1 3 3 7 1 2 5 5 4 2 4 9 11 13
9 2 3 6 6 9 6 3 5 2 2 2 1 1 2 2 2 1 4 2 3 2 3 2 3 7 7 4 1 1 2 3 2 2 2 4 1 1 6 4 3 1 4 7 8
9 4 5 7 8 7 2 5 2 4 3 1 0 0 3 2 1 2 5 3 3 3 3 2 5 5 6 2 1 3 6 4 3 4 2 6 3 2 3 3 3 2 4 7 11
8 4 6 6 5 3 4 4 4 1 1 3 2 2 3 0 1 4 2 4 4 4 6 3 1 2 3 2 2 6 2 4 3 0 2 5 3 1 3 3 3 5 7 12 13
7 3 7 4 4 4 3 5 1 2 2 4 3 3 2 2 1 1 2 2 1 4 4 3 3 1 2 3 4 4 3 3 1 3 3 3 3 3 5 4 7 7 10 14 7
5 3 7 5 2 4 6 2 3 0 3 3 2 1 4 3 1 2 3 2 2 2 3 3 3 1 2 1 2 4 3 4 4 4 6 2 2 2 3 5 8 10 14 11 10
5 2 6 5 3 3 3 3 1 2 2 6 4 3 1 2 1 2 1 3 3 6 3 4 3 0 4 3 2 3 2 2 5 1 3 2 3 6 4 8 10 14 16 9 9
5 3 7 8 4 3 4 2 1 2 4 2 4 1 4 4 4 3 3 2 1 2 0 5 3 2 3 1 13 1 7 0 2 3 6 2 4 5 6 11 13 17 13 8 10
3 5 4 10 6 2 3 2 2 2 3 1 2 2 2 2 3 3 1 1 2 3 4 4 1 2 2 3 1 3 2 5 2 2 4 5 6 3 9 8 10 15 7 9 9
2 3 3 13 4 2 3 4 0 2 4 3 1 1 1 1 2 3 5 1 4 4 5 2 3 3 2 1 1 2 3 2 0 1 0 2 7 2 6 11 12 13 9 8 7
3 2 5 9 4 2 1 1 1 1 3 3 2 1 2 2 3 1 1 2 4 1 5 7 2 3 3 3 2 2 3 4 4 1 4 4 5 2 9 9 6 7 8 6 6
2 1 3 4 4 5 4 2 1 2 3 3 3 1 1 2 3 2 1 4 2 3 5 4 3 2 3 2 3 4 2 2 1 2 3 8 12 13 10 7 4 4 4 5 9
4 2 1 2 2 4 3 2 2 2 2 1 1 1 2 2 1 2 2 1 2 1 3 2 3 1 2 3 2 2 2 4 4 4 5 9 6 10 9 7 6 4 3 5 8
2 1 2 2 1 4 2 2 4 2 2 0 2 1 3 3 2 3 3 2 1 3 3 2 3 2 3 1 1 2 3 3 3 2 7 7 8 5 7 5 4 5 6 8 10
3 3 2 3 2 2 4 4 3 1 3 2 4 2 2 1 1 4 6 7 3 2 2 2 5 3 2 1 2 4 4 2 3 4 3 6 4 10 5 6 7 9 9 9 12
Wind_Direction
234 241 250 250 255 268 271 282 286 282 289 296 306 317 319 317 308 292 275 264 242 226 231 251 259 272 291 285 227 164 176 223 204 187 204 159 184 199 163 139 173 199 236 206 181
237 241 249 253 260 272 277 281 283 279 290 300 316 325 328 331 330 31 355 210 189 197 213 221 228 238 228 204 168 200 214 229 218 206 187 171 189 180 182 154 198 216 235 190 188
235 238 248 254 263 269 274 279 273 273 286 305 323 330 337 341 13 29 50 128 158 156 160 168 174 184 176 182 191 172 248 211 243 228 177 167 187 187 195 202 206 209 203 192 199
232 234 243 252 262 269 267 265 263 267 282 314 328 334 344 2 107 17 126 115 140 158 165 161 159 151 151 208 160 247 259 234 273 181 175 174 174 206 206 215 202 212 206 193 200
229 230 235 249 262 262 257 254 256 260 275 321 329 335 350 352 51 104 150 173 175 170 161 148 143 161 112 232 161 216 291 254 281 144 183 177 188 196 222 221 279 210 198 200 204
224 232 240 242 253 255 240 248 254 244 278 323 329 333 349 3 70 94 135 167 160 153 165 164 99 35 141 198 213 233 246 111 36 142 152 179 187 202 237 223 228 204 199 201 203
228 236 238 238 242 245 227 232 241 229 282 319 327 334 329 60 46 66 117 142 162 195 203 203 52 298 206 177 303 310 143 132 34 141 139 163 191 225 236 211 211 205 199 202 205
233 232 233 228 216 218 226 221 224 233 286 313 322 329 269 35 10 71 149 186 242 249 254 245 239 218 194 224 64 63 55 106 37 130 124 211 235 243 227 198 214 203 199 203 210
223 220 220 211 200 203 222 223 223 251 287 307 319 343 43 44 46 48 36 60 112 130 145 119 139 145 34 51 93 41 92 87 87 34 147 210 259 27 278 216 222 203 203 207 211
206 202 199 197 191 197 217 212 231 263 285 298 322 324 61 346 6 77 69 81 111 131 94 182 108 85 69 32 86 100 96 79 72 28 54 114 303 337 1 222 219 205 208 213 214
166 179 183 176 190 194 177 171 267 273 246 235 270 274 332 340 102 79 32 76 101 80 49 16 74 39 39 58 107 120 93 75 80 25 104 55 359 347 333 212 213 212 219 229 226
53 134 165 169 184 162 135 104 102 63 312 251 255 270 301 19 76 89 88 118 79 68 316 53 96 18 125 139 108 88 77 44 178 23 119 160 51 14 10 300 256 236 239 240 240
36 95 154 154 141 142 133 114 337 322 309 282 239 264 123 90 92 75 91 80 63 55 38 151 79 144 140 126 101 71 98 232 311 68 74 296 129 15 10 356 290 257 256 253 251
27 65 129 135 138 142 133 338 311 228 75 328 273 25 166 145 12 56 162 113 65 93 128 49 353 157 130 88 0 28 341 288 311 241 341 339 257 23 351 17 18 2 239 242 237
20 53 130 142 130 124 341 321 132 142 133 332 241 112 165 174 129 60 158 154 111 108 216 53 105 111 82 36 259 53 60 56 57 110 169 24 272 77 340 162 159 204 237 227 218
20 72 146 134 109 49 9 134 128 51 98 15 316 181 136 78 96 120 134 107 106 86 65 94 31 40 86 95 68 126 99 69 85 119 39 359 304 140 190 205 196 228 238 229 235
21 98 153 135 134 32 105 141 100 90 309 13 15 346 174 151 147 85 81 56 147 131 110 69 34 73 137 96 80 62 25 360 46 26 358 360 269 352 242 261 246 244 234 236 261
27 126 161 164 126 45 147 69 87 30 343 338 350 264 185 158 80 82 88 126 111 103 122 137 161 279 32 10 107 56 33 31 356 333 336 312 345 29 272 264 251 255 246 253 249
17 170 165 174 143 90 168 74 147 172 323 331 312 151 121 111 114 118 138 185 219 187 127 147 181 30 34 103 318 135 74 70 109 111 276 352 246 256 246 249 248 246 242 248 253
15 161 163 164 147 115 90 153 204 232 311 7 26 11 169 145 153 182 188 177 211 180 236 175 134 40 131 107 52 298 130 298 52 315 324 296 278 301 270 243 235 242 243 249 254
15 150 177 166 148 84 133 172 248 280 316 308 331 335 93 128 109 152 221 65 2 124 123 137 127 146 201 28 72 146 145 66 94 340 305 305 306 253 280 301 285 267 248 245 251
55 103 156 161 78 46 142 176 270 326 327 290 267 258 57 77 96 164 216 250 335 205 149 94 114 131 94 92 268 75 103 120 30 275 169 314 283 14 302 297 283 279 234 234 241
23 95 152 174 136 135 185 129 239 338 320 326 307 358 9 87 110 110 115 3 353 193 160 177 57 113 131 158 130 100 102 98 97 98 219 287 287 334 311 304 286 238 229 227 237
11 92 94 145 109 138 139 125 299 323 262 281 285 176 122 61 27 132 94 15 9 100 108 112 100 172 213 111 112 156 135 135 202 239 303 263 298 314 328 302 317 324 310 274 274
19 70 73 121 97 122 103 126 115 310 235 310 240 222 142 132 85 112 137 156 77 76 57 64 103 111 93 91 154 162 177 181 237 279 263 320 285 298 349 337 332 315 290 285 284
56 67 82 70 68 125 46 164 187 246 249 36 219 147 187 165 198 186 158 199 127 58 68 13 127 137 147 104 10 248 264 256 243 246 260 277 285 5 326 321 318 297 294 306 308
61 55 48 6 72 157 161 163 173 209 233 263 294 175 186 315 103 77 95 85 90 118 112 74 138 156 177 4 0 275 229 210 277 245 259 274 337 324 330 18 14 349 329 315 329